Vorticity
nan nan nan nan nan nan nan nan nan nan nan nan nan nan nan nan nan nan nan nan nan nan nan nan nan nan nan nan nan nan nan nan nan nan nan nan nan nan nan nan nan nan nan
nan 13 16 13 13 17 17 14 12 9 7 7 9 11 7 9 9 8 7 8 9 14 18 12 11 9 10 8 10 12 7 3 12 12 7 14 16 12 9 8 5 9 nan
nan 14 18 14 15 10 7 9 10 11 11 13 9 9 10 9 10 12 12 11 10 9 11 17 20 11 9 10 11 11 10 11 10 6 8 13 14 11 9 9 9 7 nan
nan 10 9 10 12 12 9 9 9 9 10 12 11 9 10 9 13 13 11 11 11 11 11 10 14 23 12 9 8 9 9 10 10 10 10 11 11 11 8 6 7 9 nan
nan 9 8 8 9 11 12 10 11 9 8 8 11 11 10 11 12 11 10 7 8 10 11 13 6 15 20 5 8 10 9 9 10 9 8 9 11 13 9 5 8 10 nan
nan 9 8 9 9 9 9 10 9 8 10 10 9 9 10 9 5 6 9 10 8 9 9 10 14 10 15 19 11 8 6 8 9 8 11 7 10 9 11 10 7 7 nan
nan 8 7 9 10 10 9 10 10 9 8 10 8 7 9 8 6 8 9 9 10 9 10 9 10 10 10 19 19 12 12 12 5 4 9 8 7 9 9 11 10 6 nan
nan 10 10 9 9 10 10 10 10 10 9 10 10 9 8 6 7 11 12 10 9 10 10 9 9 10 11 10 18 17 11 8 5 8 12 8 9 12 9 12 7 1 nan
nan 9 10 9 9 9 11 12 11 10 10 10 9 10 10 8 7 10 8 11 11 11 10 10 7 7 10 12 13 15 13 11 17 13 12 15 18 9 -1 4 11 8 nan
nan 10 9 10 8 10 12 11 10 10 11 10 9 9 11 11 10 11 10 10 9 11 10 10 12 11 9 8 9 16 15 12 11 9 11 17 18 21 12 -1 5 8 nan
nan 10 10 9 8 10 11 11 10 10 12 11 11 10 13 12 10 10 12 13 9 8 9 12 13 9 11 13 13 9 12 20 14 10 7 12 13 11 8 12 10 7 nan
nan 11 12 10 9 9 11 9 9 13 15 11 10 12 12 13 11 9 10 12 7 9 11 10 6 9 10 13 14 14 18 12 9 11 11 12 10 10 12 14 13 10 nan
nan 10 11 10 10 10 10 10 12 12 11 12 10 11 12 12 10 10 12 8 11 14 11 8 5 13 19 18 16 20 19 10 10 10 10 12 12 11 7 9 15 10 nan
nan 11 11 10 10 10 10 11 11 10 10 8 10 12 10 9 11 12 9 8 13 11 10 13 18 21 22 17 20 24 18 14 11 10 9 9 13 13 9 10 10 9 nan
nan 12 11 10 9 10 10 10 12 10 6 6 8 10 9 9 6 5 7 10 9 6 13 14 14 16 18 20 19 17 14 12 11 12 13 12 12 10 11 10 10 10 nan
nan 12 12 10 11 10 8 10 12 9 6 7 10 11 11 6 2 7 10 11 9 12 15 11 12 12 13 16 17 13 13 11 11 12 13 12 12 11 11 10 11 11 nan
nan 10 10 12 11 9 10 9 11 16 14 11 9 8 16 16 4 6 14 16 18 19 11 9 11 13 13 13 14 15 15 13 12 11 12 11 11 14 12 9 9 10 nan
nan 13 10 11 9 9 10 11 11 7 10 13 13 11 15 19 12 8 10 16 18 16 10 9 11 12 13 13 12 14 14 15 14 12 12 12 12 12 10 10 11 11 nan
nan 10 11 11 10 10 11 12 9 8 10 10 12 13 10 15 18 13 15 13 9 9 11 12 12 11 12 13 12 14 14 13 13 12 12 12 12 11 11 11 14 14 nan
nan 11 11 10 10 12 11 11 11 8 10 11 11 10 9 13 15 16 17 12 10 10 11 11 12 12 11 12 13 13 13 13 13 12 12 12 12 12 12 12 12 11 nan
nan 11 11 11 10 11 11 11 10 11 12 10 10 8 8 14 13 13 12 13 12 10 11 11 12 12 12 11 11 13 13 13 12 12 12 13 13 12 12 12 13 11 nan
nan 11 10 11 11 10 10 11 10 10 10 10 12 9 12 13 13 12 13 13 12 11 11 11 11 12 13 13 12 12 12 12 12 13 13 12 12 12 13 13 12 11 nan
nan 10 11 11 10 10 10 10 11 9 10 11 10 11 12 11 10 13 13 13 13 12 12 11 11 12 13 11 13 14 13 12 12 12 13 12 11 13 14 12 12 12 nan
nan 10 9 10 10 11 11 10 9 10 10 11 10 11 11 10 10 11 15 15 13 13 11 11 12 12 11 12 12 12 14 15 15 16 12 10 12 13 12 13 14 11 nan
nan 10 10 10 10 10 12 12 10 11 11 10 11 11 10 10 11 10 13 15 15 14 12 11 11 13 13 12 12 14 15 14 15 14 11 14 15 11 8 11 13 13 nan
nan nan nan nan nan nan nan nan nan nan nan nan nan nan nan nan nan nan nan nan nan nan nan nan nan nan nan nan nan nan nan nan nan nan nan nan nan nan nan nan nan nan nan
CAPE
0 0 4 7 18 10 2 4 48 19 6 1 12 43 16 2 1 35 3 24 50 68 62 26 19 3 8 4 0 0 0 0 0 0 0 0 0 0 0 0 0 0 0
0 2 1 2 2 1 35 20 0 0 0 0 0 0 0 2 1 2 0 2 0 16 63 66 45 20 25 17 2 0 0 0 0 0 0 0 0 0 0 0 0 0 0
2 2 0 0 1 5 0 0 0 0 0 0 1 0 0 0 0 0 0 0 8 0 0 25 42 42 9 0 0 0 0 0 0 0 0 0 0 0 0 0 0 0 0
2 3 2 1 0 0 0 0 4 2 1 0 0 1 0 0 2 5 0 0 0 1 0 0 1 11 4 0 0 0 0 0 0 0 0 0 0 0 0 0 0 0 0
3 2 1 2 7 1 6 8 7 4 4 0 0 0 0 0 0 0 0 0 0 0 0 0 0 0 0 0 0 0 0 0 0 0 0 0 0 0 0 0 0 0 0
1 5 6 3 1 3 2 5 5 1 0 1 1 2 1 1 0 0 0 0 2 1 1 0 0 0 0 1 0 0 0 0 0 0 0 0 0 0 0 0 0 0 0
12 10 5 3 2 2 3 1 4 3 4 3 1 1 0 0 0 0 0 1 2 1 1 1 1 0 2 2 0 0 0 0 0 0 0 0 0 0 0 0 0 0 0
3 5 5 5 5 8 7 4 2 2 3 6 5 3 0 0 0 0 0 0 1 1 0 1 3 4 1 4 5 0 0 0 0 0 0 0 0 0 0 0 0 0 0
0 0 1 0 2 2 1 0 0 1 2 2 4 5 7 3 0 0 0 0 2 0 1 2 4 2 0 1 4 0 0 0 0 0 0 0 0 0 0 0 0 0 0
0 0 0 4 4 0 1 5 0 5 10 3 1 0 0 1 0 0 0 0 0 0 0 0 0 0 0 0 0 1 0 0 0 0 0 0 0 0 0 0 0 0 0
0 0 0 1 2 1 0 0 0 0 2 0 0 0 0 0 0 1 1 0 0 0 0 0 0 0 0 0 0 0 2 0 0 0 0 0 0 0 0 0 0 0 0
0 0 0 0 1 1 0 0 0 0 3 4 1 0 0 0 0 3 2 0 0 0 0 0 0 1 2 0 0 0 0 0 0 0 0 0 0 0 0 0 0 0 0
0 0 0 0 0 0 0 0 0 4 2 5 4 4 1 0 0 1 2 0 0 0 0 0 0 1 0 0 0 0 0 0 0 0 0 0 0 0 0 0 1 1 1
0 0 0 0 0 1 2 0 1 0 0 2 0 5 2 1 0 1 0 0 0 0 0 0 0 0 0 0 0 0 0 0 0 0 0 0 0 0 0 0 0 0 0
0 0 0 0 0 1 1 0 0 2 0 0 0 1 1 1 1 2 1 1 1 0 0 0 0 0 0 0 0 0 0 0 0 0 0 0 0 0 0 0 0 0 0
0 0 0 0 0 0 0 2 3 3 1 0 0 0 0 0 0 1 0 2 2 0 0 2 2 1 0 0 0 0 0 0 0 0 0 0 0 0 0 0 0 0 0
0 0 0 0 6 0 0 0 1 0 1 1 2 0 0 0 0 0 0 0 0 0 0 0 3 4 0 0 0 0 0 0 0 0 0 0 0 0 0 0 0 0 0
0 0 0 11 3 0 6 1 2 2 2 3 1 0 0 0 0 0 0 1 0 1 1 0 1 2 0 0 0 0 0 0 0 0 0 0 0 0 0 0 0 0 0
0 1 4 0 0 1 0 9 3 0 1 0 0 3 0 0 1 0 0 0 0 1 1 0 1 0 1 0 0 0 0 0 0 0 0 0 0 0 0 0 0 0 0
4 5 4 0 1 0 7 6 2 3 1 0 6 8 1 3 4 4 3 0 1 0 1 0 1 0 0 1 0 0 0 0 0 0 0 0 0 0 0 0 0 0 0
8 5 0 0 13 5 3 15 0 0 5 5 4 7 1 2 4 3 0 2 0 0 1 0 1 1 0 0 0 0 0 0 0 0 0 0 0 0 0 0 0 0 0
6 8 5 6 10 6 11 0 1 5 7 1 2 0 0 4 8 5 5 2 0 0 0 1 0 1 0 0 0 0 0 0 0 0 0 0 0 0 0 0 0 0 0
12 22 14 16 22 15 5 10 1 5 0 2 2 1 1 5 4 8 4 1 0 0 0 0 1 1 0 0 0 0 0 0 0 0 0 0 0 0 0 0 0 0 0
14 9 4 7 9 9 5 5 1 0 3 0 1 2 2 0 6 2 7 1 0 0 0 0 0 0 0 1 0 0 0 0 0 0 0 0 0 0 0 0 0 0 0
12 16 11 8 6 7 11 19 6 1 5 5 4 3 1 0 1 4 1 1 1 0 0 0 1 0 0 0 0 0 0 0 0 0 0 0 0 0 0 0 0 0 0
5 6 8 9 11 14 17 18 20 12 4 5 9 7 0 3 0 0 1 4 0 0 0 0 0 0 0 0 0 0 0 0 0 0 0 0 0 0 0 0 0 0 0